SCP
-0 -0 0 0 0 0 0 -0 -0 -0 0 0 0 0 0 0 0 0 0 0 0 0 0 0 0 0 0 0 0 0 0 0
0 0 0 0 0 0 0 0 0 0 0 -0 0 0 0 0 0 0 0 0 0 0 0 0 0 0 0 0 0 0 0 0
0 0 0 -0 0 0 0 0 0 0 0 0 0 0 0 0 0 0 0 0 0 0 0 0 0 0 0 0 0 0 0 0
0 0 0 0 0 -0 0 0 0 0 0 0 0 0 0 0 0 0 0 0 0 0 0 0 0 0 0 0 0 0 0 0
0 0 0 0 0 0 -0 -0 -0 0 0 -0 0 0 0 0 0 0 0 0 0 0 0 0 0 0 0 0 0 0 0 0
0 0 0 0 0 0 -0 -0 -0 -0 -0 -0 -0 -0 -0 -0 -0 0 0 0 0 0 0 0 0 0 0 0 0 0 0 0
-0 -0 -0 -0 -0 -0 0 0 0 0 -0 -0 -0 -0 -0 -0 -0 -0 -0 0 0 0 0 0 0 0 0 0 0 0 0 0
-0 -0 -0 -0 -0 -0 -0 0 -0 -0 -0 -0 -0 0 0 0 0 0 -0 0 0 0 0 0 0 0 0 0 0 0 0 0
-0 -0 -0 -0 -0 -0 -0 -0 -0 -0 -0 0 0 0 0 0 0 0 0 0 0 0 0 0 0 0 0 0 0 0 0 0
-0 -0 -0 -0 -0 -0 -0 -0 -0 -0 0 0 0 -0 -0 0 0 0 0 0 0 0 0 0 0 0 0 0 0 0 0 0
0 0 0 0 0 0 -0 -0 -0 -0 -0 0 0 0 0 0 -0 0 0 0 0 0 0 0 0 0 0 0 0 0 0 0
0 0 0 0 0 0 0 0 -0 -0 -0 -0 -0 -0 -0 0 0 0 0 0 0 0 0 0 0 0 0 0 0 0 0 0
0 0 0 0 0 0 0 0 0 0 -0 -0 -0 -0 -0 -0 -0 -0 0 0 0 0 0 0 0 0 0 0 0 0 0 0
0 0 0 0 0 0 0 0 0 0 -0 -0 -0 -0 -0 -0 -0 -0 -0 0 0 0 0 0 0 0 0 0 0 0 0 0
0 0 0 0 0 0 0 0 0 0 -0 -0 -0 -0 -0 -0 -0 -0 -0 -0 0 0 0 0 0 0 0 0 0 0 0 0
0 0 0 0 0 0 0 0 0 0 0 0 -0 -0 -0 -0 0 0 0 0 0 0 0 0 0 0 0 0 0 0 0 0
0 0 0 0 0 0 0 0 0 0 0 0 0 0 0 0 -0 0 0 0 -0 0 0 0 0 0 0 0 0 0 0 0
0 0 0 0 0 0 0 0 0 0 0 0 0 0 0 0 0 0 -0 0 0 0 0 0 0 0 0 0 0 0 0 0
0 0 0 0 0 0 0 0 0 0 0 0 0 0 0 0 0 0 0 0 0 0 0 0 0 0 -0 -0 -0 0 0 0
0 0 -0 -0 0 0 0 0 0 0 0 0 0 0 0 0 0 0 0 0 0 0 0 0 0 0 0 -0 0 0 0 0
Wind_Speed_500mb
64 61 61 62 59 53 54 50 48 45 40 37 41 48 56 58 60 65 70 75 78 78 85 95 98 101 101 102 100 97 94 90
53 56 60 59 58 57 54 54 50 49 49 49 43 41 46 52 60 66 68 74 78 78 82 90 98 102 106 108 106 102 99 96
50 54 56 64 62 62 60 57 57 57 57 53 50 50 48 48 51 57 63 71 80 83 85 90 95 100 107 114 113 110 108 103
57 60 66 68 70 69 63 62 64 61 59 58 58 58 56 53 50 56 59 68 72 83 91 96 93 99 107 112 115 115 111 107
50 57 57 61 67 70 74 67 65 64 66 63 60 62 64 60 58 57 59 63 68 77 84 98 95 100 107 111 120 116 115 114
44 53 55 57 61 66 69 78 72 71 64 68 67 64 65 66 64 63 64 64 68 70 82 92 95 102 108 110 118 119 121 121
41 45 50 54 59 64 68 70 76 79 74 70 70 71 68 70 69 66 67 72 68 73 76 87 97 102 106 106 114 122 121 126
50 55 57 53 55 60 63 65 67 71 78 81 83 79 74 70 68 67 68 66 69 70 71 77 92 98 105 105 109 119 119 124
56 60 58 57 58 60 59 63 71 77 79 82 84 88 86 79 78 67 66 68 65 64 72 69 83 90 95 101 109 115 114 117
59 65 69 65 61 62 60 65 70 75 81 86 87 93 94 94 89 86 79 70 71 66 65 69 77 79 76 94 105 113 115 116
67 72 78 79 74 75 76 77 77 82 87 88 92 95 99 100 101 94 85 86 72 69 66 64 69 69 70 76 90 105 114 118
70 76 83 83 85 89 90 92 88 89 91 96 98 101 103 107 105 104 96 87 84 79 66 65 67 66 69 76 84 96 108 113
77 86 91 90 93 97 101 102 99 101 103 104 103 107 111 110 111 106 102 92 87 83 77 64 69 67 69 67 81 93 98 107
87 95 100 98 98 100 109 108 112 116 118 118 117 115 113 116 113 111 102 97 89 83 80 81 76 74 63 64 73 99 104 94
87 95 103 105 105 105 112 113 116 122 128 129 128 124 119 114 114 110 103 89 89 81 83 82 83 79 66 58 62 90 98 88
88 90 103 107 116 114 109 106 116 123 126 123 119 119 116 113 106 106 100 79 83 82 77 79 82 84 72 56 67 91 97 88
99 93 104 108 115 113 110 104 106 109 107 97 92 95 98 101 110 102 81 70 75 76 72 78 74 67 66 49 59 79 100 93
99 96 101 105 104 98 96 91 90 91 93 90 84 81 80 78 76 88 92 66 62 66 69 75 73 64 58 46 43 75 87 93
84 88 92 93 94 94 91 89 86 85 85 86 84 81 74 74 75 72 73 73 64 60 55 60 64 63 51 47 46 74 84 96
82 85 81 83 87 81 80 81 80 79 80 79 79 78 78 75 79 77 71 72 69 62 55 41 57 51 62 46 64 77 94 89
Wind_Direction_500mb
20 20 21 20 22 18 19 14 6 354 340 326 312 300 289 281 277 269 264 258 255 249 243 240 236 233 230 230 229 228 229 230
4 7 7 11 13 10 8 8 4 360 355 342 327 310 293 287 280 271 265 261 257 254 250 244 237 235 233 231 230 228 228 229
1 2 3 2 3 8 4 0 358 356 352 348 344 328 313 302 292 282 272 267 262 257 254 249 244 238 236 234 232 229 227 228
2 3 2 3 1 357 357 355 355 354 348 344 341 344 335 315 300 292 286 278 269 262 255 252 248 244 239 237 237 234 232 231
355 351 353 353 354 352 351 355 349 347 347 345 345 343 340 336 319 299 292 285 276 266 262 256 252 248 244 238 236 234 235 234
353 346 348 346 343 341 341 342 346 343 340 341 337 338 337 335 332 327 307 291 285 277 266 258 253 248 246 243 241 237 234 234
342 334 340 339 337 332 333 335 335 335 336 336 332 333 330 330 328 329 323 308 288 278 273 267 258 252 248 244 244 243 238 237
330 330 331 331 331 330 333 333 331 330 331 331 331 328 326 324 323 320 319 318 309 285 275 269 266 259 253 248 244 243 242 241
320 320 320 319 321 321 325 328 329 329 330 329 330 328 324 322 319 315 311 309 311 306 286 275 271 266 261 255 248 244 244 244
312 314 313 310 311 311 313 319 321 321 322 324 328 326 326 322 317 314 307 303 303 306 302 287 274 268 264 259 250 247 242 239
309 309 309 309 308 308 308 310 310 314 316 318 319 319 319 320 317 314 310 300 295 295 297 292 282 271 263 251 239 245 240 237
305 304 307 306 305 304 304 303 306 306 307 310 311 310 312 314 314 312 309 304 296 289 288 293 288 275 260 247 238 245 246 242
304 304 305 303 302 301 300 305 304 303 303 303 302 303 305 306 307 308 305 301 295 288 284 284 286 277 259 247 231 240 243 244
304 303 302 302 302 301 301 303 302 301 300 299 300 299 300 301 300 302 301 298 294 288 283 278 275 269 262 249 229 231 238 241
303 302 302 302 302 300 301 300 300 299 299 298 297 296 294 294 295 296 295 291 289 287 279 278 275 273 267 248 234 226 228 232
304 301 300 301 299 299 298 298 297 298 297 297 297 296 294 292 290 288 287 281 278 279 277 274 275 272 273 264 229 219 222 222
306 303 302 300 299 299 298 297 297 296 296 294 293 293 292 291 289 283 280 277 266 266 262 271 272 276 274 264 236 219 222 218
308 307 307 307 305 306 306 304 300 296 296 295 292 289 288 286 284 288 286 281 265 260 259 256 260 267 266 260 233 213 217 213
318 318 319 316 310 314 312 307 301 299 297 294 290 289 284 280 279 278 280 285 280 269 266 254 251 249 255 239 214 206 203 210
327 326 318 312 312 318 314 308 306 304 302 300 296 292 290 283 280 283 278 276 274 269 273 269 242 236 240 226 217 208 198 205
Wind_Speed_850mb
64 61 61 62 59 53 54 50 48 45 40 37 41 48 56 58 60 65 70 75 78 78 85 95 98 101 101 102 100 97 94 90
53 56 60 59 58 57 54 54 50 49 49 49 43 41 46 52 60 66 68 74 78 78 82 90 98 102 106 108 106 102 99 96
50 54 56 64 62 62 60 57 57 57 57 53 50 50 48 48 51 57 63 71 80 83 85 90 95 100 107 114 113 110 108 103
57 60 66 68 70 69 63 62 64 61 59 58 58 58 56 53 50 56 59 68 72 83 91 96 93 99 107 112 115 115 111 107
50 57 57 61 67 70 74 67 65 64 66 63 60 62 64 60 58 57 59 63 68 77 84 98 95 100 107 111 120 116 115 114
44 53 55 57 61 66 69 78 72 71 64 68 67 64 65 66 64 63 64 64 68 70 82 92 95 102 108 110 118 119 121 121
41 45 50 54 59 64 68 70 76 79 74 70 70 71 68 70 69 66 67 72 68 73 76 87 97 102 106 106 114 122 121 126
50 55 57 53 55 60 63 65 67 71 78 81 83 79 74 70 68 67 68 66 69 70 71 77 92 98 105 105 109 119 119 124
56 60 58 57 58 60 59 63 71 77 79 82 84 88 86 79 78 67 66 68 65 64 72 69 83 90 95 101 109 115 114 117
59 65 69 65 61 62 60 65 70 75 81 86 87 93 94 94 89 86 79 70 71 66 65 69 77 79 76 94 105 113 115 116
67 72 78 79 74 75 76 77 77 82 87 88 92 95 99 100 101 94 85 86 72 69 66 64 69 69 70 76 90 105 114 118
70 76 83 83 85 89 90 92 88 89 91 96 98 101 103 107 105 104 96 87 84 79 66 65 67 66 69 76 84 96 108 113
77 86 91 90 93 97 101 102 99 101 103 104 103 107 111 110 111 106 102 92 87 83 77 64 69 67 69 67 81 93 98 107
87 95 100 98 98 100 109 108 112 116 118 118 117 115 113 116 113 111 102 97 89 83 80 81 76 74 63 64 73 99 104 94
87 95 103 105 105 105 112 113 116 122 128 129 128 124 119 114 114 110 103 89 89 81 83 82 83 79 66 58 62 90 98 88
88 90 103 107 116 114 109 106 116 123 126 123 119 119 116 113 106 106 100 79 83 82 77 79 82 84 72 56 67 91 97 88
99 93 104 108 115 113 110 104 106 109 107 97 92 95 98 101 110 102 81 70 75 76 72 78 74 67 66 49 59 79 100 93
99 96 101 105 104 98 96 91 90 91 93 90 84 81 80 78 76 88 92 66 62 66 69 75 73 64 58 46 43 75 87 93
84 88 92 93 94 94 91 89 86 85 85 86 84 81 74 74 75 72 73 73 64 60 55 60 64 63 51 47 46 74 84 96
82 85 81 83 87 81 80 81 80 79 80 79 79 78 78 75 79 77 71 72 69 62 55 41 57 51 62 46 64 77 94 89
Wind_Direction_850mb
20 20 21 20 22 18 19 14 6 354 340 326 312 300 289 281 277 269 264 258 255 249 243 240 236 233 230 230 229 228 229 230
4 7 7 11 13 10 8 8 4 360 355 342 327 310 293 287 280 271 265 261 257 254 250 244 237 235 233 231 230 228 228 229
1 2 3 2 3 8 4 0 358 356 352 348 344 328 313 302 292 282 272 267 262 257 254 249 244 238 236 234 232 229 227 228
2 3 2 3 1 357 357 355 355 354 348 344 341 344 335 315 300 292 286 278 269 262 255 252 248 244 239 237 237 234 232 231
355 351 353 353 354 352 351 355 349 347 347 345 345 343 340 336 319 299 292 285 276 266 262 256 252 248 244 238 236 234 235 234
353 346 348 346 343 341 341 342 346 343 340 341 337 338 337 335 332 327 307 291 285 277 266 258 253 248 246 243 241 237 234 234
342 334 340 339 337 332 333 335 335 335 336 336 332 333 330 330 328 329 323 308 288 278 273 267 258 252 248 244 244 243 238 237
330 330 331 331 331 330 333 333 331 330 331 331 331 328 326 324 323 320 319 318 309 285 275 269 266 259 253 248 244 243 242 241
320 320 320 319 321 321 325 328 329 329 330 329 330 328 324 322 319 315 311 309 311 306 286 275 271 266 261 255 248 244 244 244
312 314 313 310 311 311 313 319 321 321 322 324 328 326 326 322 317 314 307 303 303 306 302 287 274 268 264 259 250 247 242 239
309 309 309 309 308 308 308 310 310 314 316 318 319 319 319 320 317 314 310 300 295 295 297 292 282 271 263 251 239 245 240 237
305 304 307 306 305 304 304 303 306 306 307 310 311 310 312 314 314 312 309 304 296 289 288 293 288 275 260 247 238 245 246 242
304 304 305 303 302 301 300 305 304 303 303 303 302 303 305 306 307 308 305 301 295 288 284 284 286 277 259 247 231 240 243 244
304 303 302 302 302 301 301 303 302 301 300 299 300 299 300 301 300 302 301 298 294 288 283 278 275 269 262 249 229 231 238 241
303 302 302 302 302 300 301 300 300 299 299 298 297 296 294 294 295 296 295 291 289 287 279 278 275 273 267 248 234 226 228 232
304 301 300 301 299 299 298 298 297 298 297 297 297 296 294 292 290 288 287 281 278 279 277 274 275 272 273 264 229 219 222 222
306 303 302 300 299 299 298 297 297 296 296 294 293 293 292 291 289 283 280 277 266 266 262 271 272 276 274 264 236 219 222 218
308 307 307 307 305 306 306 304 300 296 296 295 292 289 288 286 284 288 286 281 265 260 259 256 260 267 266 260 233 213 217 213
318 318 319 316 310 314 312 307 301 299 297 294 290 289 284 280 279 278 280 285 280 269 266 254 251 249 255 239 214 206 203 210
327 326 318 312 312 318 314 308 306 304 302 300 296 292 290 283 280 283 278 276 274 269 273 269 242 236 240 226 217 208 198 205